Flag for Micronesia Weather past 2 weeks in Kolonia, Ponape, Micronesia

Now
83 °F

Mostly cloudy.


Feels Like: 89 °F
Forecast: 81 / 86 °F
Wind: 5 mph from East

Location: Pohnpei


UV Index: 3 (Moderate)

Visibility: 15 mi


Pressure: 29.85 "Hg

Humidity: 72%

Dew point: 73 °F

Location of KoloniaLocation

Historic Weather in Kolonia

°F

Kolonia temperature yesterday

Maximum temperature yesterday: 88 °F (at 2:52 PM)
Minimum temperature yesterday: 76 °F (at 12:53 AM)
Average temperature yesterday: 82 °F

Past Weeks' High & Low Weather Summary

 TemperatureHumidityPressure
High91 °F (Apr 16, 1:50 PM)98% (Apr 13, 3:55 AM)29.98 "Hg (Apr 13, 3:55 AM)
Low74 °F (Apr 15, 3:54 AM)60% (Apr 19, 4:54 PM)29.75 "Hg (Apr 9, 2:50 PM)
Average81 °F85%29.83 "Hg
* Reported Apr 5 6:55 PM — Apr 20 6:52 PM, Kolonia, Weather by CustomWeather, © 2014

Note: Actual official high and low records may vary slightly from our data, if they occured in-between our weather recording intervals... More about our weather records

Advertising

Historic Weather Conditions — Data for Previous 24 hours

 ConditionsComfort  
Time TempWeatherWind HumidityBarometerVisibility
6:52 PM
Apr 20
83 °FMostly cloudy.5 mph72%29.85 "Hg15 mi
5:54 PM84 °FCloudy.6 mph73%29.82 "Hg15 mi
4:54 PM85 °FCloudy.6 mph70%29.81 "Hg15 mi
3:51 PM86 °FMore clouds than sun.9 mph70%29.80 "Hg15 mi
2:55 PM87 °FMore clouds than sun.7 mph68%29.80 "Hg15 mi
12:55 PM87 °FBroken clouds.8 mph70%29.83 "Hg15 mi
11:52 AM87 °FPartly sunny.9 mph69%29.85 "Hg15 mi
10:50 AM85 °FMore clouds than sun.6 mph73%29.87 "Hg15 mi
9:55 AM86 °FMore clouds than sun.5 mph70%29.87 "Hg15 mi
8:58 AM84 °FCloudy.10 mph78%29.86 "Hg15 mi
7:51 AM83 °FCloudy.8 mph79%29.85 "Hg15 mi
6:50 AM83 °FBroken clouds.7 mph77%29.98 "Hg15 mi
5:52 AM82 °FPartly cloudy.6 mph81%29.82 "Hg15 mi
4:55 AM82 °FPartly cloudy.6 mph79%29.80 "Hg15 mi
3:55 AM82 °FPartly cloudy.6 mph81%29.80 "Hg15 mi
2:57 AM79 °FPartly cloudy.5 mph85%29.80 "Hg15 mi
1:51 AM81 °FPartly cloudy.6 mph83%29.81 "Hg15 mi
12:51 AM81 °FPartly cloudy.5 mph84%29.83 "Hg15 mi
11:55 PM
Apr 19
81 °FPartly cloudy.5 mph79%29.83 "Hg15 mi
10:54 PM81 °FPartly cloudy.6 mph83%29.85 "Hg15 mi
9:54 PM81 °FOvercast.3 mph79%29.85 "Hg15 mi
8:54 PM81 °FMostly cloudy.9 mph83%29.84 "Hg15 mi
7:52 PM81 °FOvercast.12 mph83%29.83 "Hg15 mi
Weather by CustomWeather, © 2014

See weather overview